Wind_Speed
37 35 34 33 32 30 28 27 26 24 21 20 18 16 15 13 11 9 8 6 6 6 7 8 8 7 7 10 10 12 12 12 14 15 16 17 18 19 21 22 24 25 25 26
40 37 36 35 33 32 30 28 27 26 24 22 20 19 17 14 11 10 9 8 8 9 9 9 9 10 10 11 11 12 13 14 15 17 18 19 20 21 23 24 24 25 27 28
39 39 38 37 35 33 33 32 30 27 24 22 19 18 16 14 13 12 12 11 11 11 11 11 12 13 13 14 14 14 15 16 18 19 20 21 22 22 23 26 27 27 28 29
38 38 40 36 34 34 33 31 29 27 25 21 19 17 16 15 15 14 13 13 13 14 14 14 14 15 16 17 17 17 18 19 20 22 23 24 24 24 26 27 29 29 30 31
37 37 37 35 33 32 30 30 28 26 25 22 19 18 17 16 16 15 14 14 14 15 16 16 16 17 18 19 20 21 22 22 22 24 25 26 26 26 27 28 29 30 31 31
31 33 33 32 31 32 31 30 27 24 21 20 20 19 18 18 16 14 14 15 16 16 18 19 20 20 21 22 23 23 24 25 26 26 28 28 28 29 30 30 31 32 33 34
28 30 30 29 29 31 31 27 25 23 22 21 20 19 19 19 16 15 16 17 18 18 19 20 21 22 22 24 25 26 27 28 29 30 30 31 32 33 33 33 34 34 34 36
27 28 28 27 27 28 28 26 25 24 23 22 20 18 18 18 17 16 17 18 19 20 21 21 22 23 24 25 27 28 29 29 30 31 31 32 34 33 32 33 33 34 35 35
24 26 27 26 25 24 24 24 24 23 22 21 19 18 17 17 17 17 18 19 20 21 21 23 24 25 26 27 28 29 30 31 31 32 32 33 32 33 33 34 34 35 35 35
20 21 23 22 21 22 22 23 20 20 19 19 18 17 16 16 16 16 18 19 20 21 22 23 24 25 27 28 29 30 31 31 32 32 33 34 34 35 35 35 35 36 36 36
17 17 18 19 18 18 18 19 19 20 19 19 19 17 17 16 16 17 18 19 20 21 23 24 25 27 28 29 30 31 32 33 34 34 35 35 36 36 36 37 38 38 38 39
12 13 13 14 14 16 17 17 17 18 17 16 16 15 16 17 17 18 19 20 21 22 24 25 26 28 29 30 31 32 33 34 34 34 35 36 36 37 38 38 38 38 39 41
8 8 9 11 11 11 11 11 11 13 13 13 13 14 16 17 18 19 20 21 22 23 25 26 27 28 30 31 32 33 34 35 36 36 37 38 38 38 39 40 40 41 42 43
6 6 6 8 8 9 10 11 10 11 12 13 14 16 17 18 19 21 22 23 24 25 26 28 29 30 31 32 33 33 34 35 36 37 38 39 40 40 40 41 42 43 44 44
5 6 6 6 6 7 8 9 10 11 12 14 15 16 18 19 21 22 23 24 25 26 27 29 30 31 32 33 34 34 35 37 38 39 40 41 41 41 42 43 43 44 45 45
4 4 4 5 6 7 8 9 10 12 13 15 16 18 19 21 22 24 25 26 27 28 29 30 31 32 33 34 35 36 37 38 39 40 40 41 41 42 43 43 44 45 46 48
4 3 3 4 5 7 8 10 12 13 15 16 18 20 21 22 23 25 26 27 28 29 30 31 32 34 35 36 37 38 39 40 41 41 42 42 43 44 45 46 47 47 48 49
6 6 6 6 7 9 10 11 13 15 17 19 20 21 23 24 25 26 27 28 29 31 32 33 34 35 36 37 38 39 40 41 41 42 43 43 44 45 46 47 47 48 49 49
8 8 8 9 10 11 13 15 16 18 19 20 22 23 24 25 26 27 29 30 31 32 33 35 36 37 38 38 39 39 40 40 41 41 42 43 44 45 45 46 46 46 46 46
9 10 11 12 13 14 16 17 18 19 20 22 23 25 26 27 28 30 31 32 33 34 35 36 37 37 37 38 38 39 39 40 41 41 42 42 43 43 43 43 43 44 44 44
11 12 13 15 16 17 19 20 21 22 23 24 25 26 28 29 31 32 33 34 35 35 36 36 37 38 38 39 39 39 40 40 40 40 41 41 41 41 41 41 41 41 41 40
14 15 16 17 19 20 21 22 24 25 26 27 28 29 30 32 33 34 35 35 36 36 37 37 38 39 39 39 39 39 38 38 38 39 39 39 38 38 38 37 37 36 35 34
16 18 19 20 21 23 24 25 26 27 28 29 30 32 33 34 34 35 35 35 36 37 37 37 38 37 37 37 37 37 37 37 37 36 36 35 34 33 33 32 32 31 30 30
19 20 21 22 24 25 26 27 28 29 30 31 32 33 34 34 35 35 35 35 36 36 36 36 36 35 35 36 35 35 34 34 33 32 31 31 30 30 29 29 28 27 26 25
21 22 23 24 26 27 28 29 30 31 32 33 33 33 34 34 34 34 34 35 35 35 35 35 34 34 34 33 33 32 31 30 29 29 28 28 27 27 26 24 23 22 21 20
23 24 25 26 27 28 29 30 31 32 32 33 33 34 34 34 34 34 34 34 34 34 33 33 32 31 31 30 29 28 27 26 26 25 25 24 24 22 21 20 19 19 18 16
24 25 27 28 29 30 31 31 31 32 33 33 33 33 33 33 33 32 32 32 31 30 30 30 29 28 27 27 26 25 24 24 23 22 21 20 19 18 17 17 16 15 14 13
Wind_Direction
246 246 243 242 244 249 255 259 261 267 269 269 273 277 277 271 268 271 264 259 261 259 262 265 265 261 266 252 250 246 242 244 244 245 246 247 247 246 246 249 249 250 251 254
244 245 244 244 245 248 252 256 258 263 264 266 272 274 276 267 264 267 265 260 258 256 254 258 261 263 267 267 265 258 253 253 253 254 255 256 254 254 253 252 253 254 255 256
244 243 245 243 244 246 249 253 257 259 263 267 269 272 273 265 268 263 262 259 256 257 257 257 259 261 262 264 266 265 264 265 264 264 265 262 261 262 261 258 257 261 261 261
243 241 241 240 240 242 247 251 255 257 258 264 266 271 268 262 268 261 262 261 258 257 258 261 262 261 265 266 264 263 263 266 265 264 265 264 262 262 263 262 262 263 264 264
242 241 241 238 238 239 244 249 252 254 254 256 259 264 260 256 263 264 263 262 257 257 260 263 265 265 266 267 267 267 267 267 269 269 268 269 267 268 269 268 267 268 268 269
241 239 241 238 238 240 245 249 248 248 250 253 257 260 261 256 255 257 261 262 262 262 263 265 266 267 267 268 270 272 274 272 274 274 274 274 272 273 272 271 271 271 270 272
240 241 241 242 239 240 243 246 246 247 248 252 257 260 260 261 259 257 261 262 263 263 264 266 268 269 269 271 271 273 274 276 276 277 279 277 276 275 274 274 274 275 274 274
237 240 240 240 237 238 240 241 242 244 245 246 253 258 258 258 256 257 262 264 264 267 268 268 269 271 272 273 273 272 274 277 278 280 280 281 281 279 276 278 279 280 279 278
239 239 237 235 233 233 236 237 239 241 244 243 248 257 259 260 259 261 263 266 267 269 270 271 272 273 273 274 275 276 277 278 280 281 281 283 284 283 281 280 282 283 281 280
236 235 233 230 228 230 235 237 238 238 237 240 245 255 257 259 262 263 263 265 267 269 272 274 275 275 276 277 278 279 279 280 282 282 283 283 283 283 282 282 283 282 281 280
228 233 230 228 228 228 235 237 243 243 241 242 247 250 256 261 261 262 264 267 269 270 272 274 275 276 277 278 279 279 280 281 281 281 283 284 282 282 282 283 283 281 281 281
231 229 224 220 222 227 233 239 242 242 238 241 246 248 254 258 261 264 267 270 271 273 275 276 277 279 280 280 281 281 281 282 282 282 282 282 283 283 283 283 283 282 281 280
223 220 223 223 218 221 227 226 226 232 237 240 246 254 259 263 266 269 271 273 275 277 278 279 280 281 281 282 282 282 282 282 282 282 283 284 284 284 284 284 283 283 282 282
217 218 209 207 213 222 229 234 237 239 245 250 256 261 265 269 273 275 276 277 279 281 282 282 282 283 283 283 284 283 283 283 283 283 283 284 284 284 284 284 284 283 283 284
198 192 199 206 217 221 231 244 249 252 257 261 266 270 275 277 279 280 280 281 282 283 284 285 285 285 285 285 286 285 285 285 285 286 285 285 284 284 284 284 285 285 284 285
206 216 216 220 226 233 242 250 258 262 266 270 275 278 280 282 283 283 284 285 286 286 287 287 286 286 287 287 288 288 288 288 288 287 287 287 286 286 286 286 286 286 285 285
236 233 233 238 248 253 257 263 265 268 271 275 277 280 282 283 285 286 287 288 288 289 289 288 288 289 289 289 289 289 289 289 289 288 287 287 287 286 286 286 286 285 285 285
255 259 256 259 262 264 267 269 270 273 277 280 282 284 285 287 288 288 289 290 291 291 291 292 292 292 292 292 292 291 291 290 289 289 288 288 287 287 287 287 287 287 287 287
254 264 268 268 268 271 274 276 276 278 279 281 284 286 287 289 289 290 291 293 293 293 293 293 294 294 294 294 293 292 291 291 290 290 289 289 289 289 289 288 288 288 289 289
265 270 274 277 279 281 281 282 283 284 286 287 289 290 291 292 293 294 294 295 295 295 295 295 295 295 295 295 294 293 292 292 292 291 291 291 291 290 290 289 289 289 290 290
272 277 280 282 284 285 286 287 289 290 292 294 295 295 295 295 296 296 296 296 297 297 297 297 296 296 296 295 295 294 294 293 293 293 293 293 292 291 291 291 291 291 291 291
276 280 282 284 286 288 289 291 292 293 294 294 295 295 296 296 297 298 298 298 298 298 298 297 297 297 296 296 296 295 295 294 293 293 294 294 294 294 293 294 294 294 294 294
281 283 285 286 287 289 290 290 291 292 294 296 297 297 298 298 299 299 299 299 298 298 298 298 298 298 297 297 297 296 295 295 295 296 297 297 297 297 297 297 297 297 297 297
281 283 284 285 287 288 290 291 293 295 297 298 299 300 300 300 300 300 300 300 299 299 298 299 299 298 298 298 298 297 297 297 298 298 298 299 300 300 300 299 299 300 300 299
283 283 283 286 288 290 292 294 296 297 299 300 301 301 301 301 301 301 301 301 301 301 301 301 300 300 300 299 299 300 300 300 300 300 300 301 302 303 303 303 303 303 304 304
285 286 287 290 291 292 294 295 296 297 298 299 300 301 302 302 302 302 303 302 302 301 301 301 301 300 301 301 302 302 303 303 303 303 303 304 305 306 305 306 307 308 309 310
286 288 289 291 292 293 294 295 296 297 298 299 300 301 302 302 303 302 303 304 303 303 302 303 303 302 303 303 304 305 305 305 305 306 306 307 308 308 308 309 311 313 315 316
Height
5805 5808 5811 5814 5816 5817 5819 5820 5821 5822 5823 5824 5825 5825 5825 5825 5825 5826 5826 5827 5827 5828 5828 5828 5828 5828 5829 5830 5830 5831 5831 5832 5834 5834 5835 5836 5836 5837 5837 5838 5839 5839 5839 5839
5797 5800 5803 5806 5809 5811 5813 5814 5815 5816 5818 5818 5820 5820 5821 5821 5821 5821 5822 5823 5824 5824 5825 5825 5825 5826 5826 5826 5827 5828 5828 5829 5830 5830 5830 5830 5830 5830 5831 5831 5831 5832 5832 5831
5788 5792 5795 5798 5802 5804 5806 5808 5809 5811 5813 5813 5815 5815 5815 5816 5817 5817 5818 5819 5820 5820 5821 5822 5822 5823 5823 5823 5824 5824 5824 5825 5825 5824 5824 5824 5824 5824 5824 5823 5823 5823 5823 5823
5779 5784 5786 5793 5795 5797 5799 5801 5803 5805 5807 5808 5809 5809 5809 5810 5811 5811 5812 5814 5815 5816 5817 5818 5818 5818 5818 5819 5819 5819 5819 5819 5818 5818 5818 5817 5817 5817 5816 5814 5814 5814 5813 5814
5771 5773 5777 5783 5786 5789 5792 5794 5796 5798 5800 5802 5803 5804 5803 5804 5806 5807 5808 5809 5809 5811 5812 5812 5812 5813 5812 5812 5812 5812 5811 5811 5810 5810 5809 5808 5808 5808 5806 5805 5805 5805 5804 5803
5762 5765 5767 5776 5780 5782 5786 5787 5790 5791 5793 5796 5798 5799 5799 5799 5800 5802 5803 5804 5804 5805 5806 5806 5806 5806 5805 5805 5805 5805 5804 5803 5802 5802 5801 5799 5799 5798 5797 5796 5795 5795 5794 5794
5756 5758 5761 5767 5771 5775 5779 5782 5784 5785 5788 5790 5792 5793 5794 5794 5795 5796 5798 5798 5799 5799 5800 5799 5799 5798 5798 5798 5798 5797 5796 5796 5795 5794 5792 5791 5790 5788 5786 5786 5785 5784 5783 5782
5750 5753 5758 5760 5763 5767 5771 5774 5776 5779 5781 5782 5784 5786 5788 5788 5789 5790 5791 5792 5793 5793 5793 5793 5793 5792 5792 5791 5790 5789 5788 5787 5786 5785 5783 5782 5780 5777 5776 5776 5775 5773 5772 5771
5746 5749 5750 5753 5756 5760 5763 5767 5770 5772 5774 5776 5779 5781 5782 5783 5784 5784 5785 5786 5786 5786 5786 5786 5786 5785 5784 5784 5782 5781 5780 5778 5777 5776 5775 5773 5770 5768 5766 5765 5764 5763 5761 5760
5740 5742 5745 5748 5751 5754 5757 5760 5763 5765 5768 5771 5773 5775 5776 5777 5778 5779 5779 5780 5780 5780 5779 5779 5778 5777 5776 5775 5774 5773 5771 5770 5768 5767 5765 5763 5761 5759 5757 5755 5753 5752 5750 5749
5736 5738 5741 5743 5746 5749 5752 5755 5758 5760 5762 5765 5768 5769 5770 5772 5772 5773 5773 5773 5773 5773 5772 5772 5771 5770 5768 5767 5765 5764 5762 5760 5758 5757 5755 5753 5751 5749 5747 5745 5743 5742 5740 5738
5733 5735 5737 5739 5742 5745 5748 5749 5752 5754 5756 5758 5761 5763 5764 5766 5766 5766 5767 5767 5766 5765 5765 5764 5763 5761 5760 5758 5756 5754 5752 5750 5748 5746 5744 5742 5740 5738 5736 5734 5732 5729 5727 5725
5730 5732 5733 5735 5738 5741 5744 5745 5747 5750 5752 5754 5756 5757 5758 5759 5759 5759 5759 5759 5758 5757 5756 5755 5754 5752 5750 5749 5747 5745 5743 5741 5738 5736 5734 5732 5729 5727 5725 5722 5719 5717 5715 5712
5727 5729 5730 5732 5735 5738 5740 5742 5744 5746 5748 5749 5751 5751 5752 5752 5752 5752 5752 5751 5750 5749 5748 5746 5744 5742 5740 5738 5737 5734 5732 5730 5727 5725 5723 5720 5718 5715 5712 5709 5707 5704 5701 5698
5725 5727 5729 5730 5733 5735 5737 5738 5740 5741 5743 5744 5745 5745 5745 5745 5745 5745 5744 5743 5742 5740 5739 5737 5735 5733 5730 5728 5726 5723 5721 5719 5716 5713 5710 5707 5705 5702 5699 5696 5693 5690 5687 5683
5724 5725 5727 5729 5730 5732 5734 5735 5736 5737 5738 5739 5739 5739 5739 5738 5738 5737 5736 5735 5733 5731 5729 5727 5725 5722 5720 5718 5715 5712 5709 5706 5704 5701 5697 5694 5691 5688 5685 5682 5678 5675 5672 5668
5722 5724 5725 5727 5728 5730 5731 5732 5732 5733 5733 5733 5733 5733 5732 5732 5731 5729 5728 5726 5724 5722 5720 5717 5715 5712 5709 5706 5703 5700 5697 5694 5691 5687 5684 5681 5677 5674 5670 5667 5664 5660 5656 5652
5721 5722 5723 5725 5726 5726 5727 5728 5728 5728 5728 5727 5727 5726 5725 5724 5722 5721 5719 5717 5714 5712 5709 5706 5704 5701 5697 5694 5691 5688 5684 5681 5677 5674 5670 5667 5663 5659 5655 5652 5648 5644 5640 5636
5718 5719 5720 5721 5722 5722 5723 5723 5723 5722 5722 5721 5720 5719 5717 5716 5714 5711 5709 5707 5704 5702 5699 5695 5692 5689 5685 5682 5678 5675 5671 5667 5664 5660 5656 5652 5648 5644 5640 5637 5632 5628 5624 5620
5715 5716 5716 5717 5717 5717 5717 5717 5716 5716 5715 5714 5712 5710 5708 5706 5704 5702 5699 5697 5694 5691 5687 5683 5680 5676 5673 5669 5665 5662 5658 5654 5650 5646 5642 5638 5634 5630 5626 5622 5618 5614 5610 5606
5711 5711 5711 5711 5711 5711 5710 5710 5709 5708 5706 5705 5703 5701 5699 5697 5694 5692 5689 5686 5682 5679 5675 5672 5668 5664 5661 5657 5653 5649 5645 5641 5637 5633 5629 5625 5621 5617 5612 5608 5604 5600 5596 5592
5705 5706 5706 5705 5705 5704 5703 5702 5701 5700 5698 5696 5694 5692 5690 5687 5684 5681 5677 5674 5671 5667 5664 5660 5656 5652 5648 5644 5640 5636 5632 5628 5624 5620 5616 5612 5608 5604 5600 5596 5592 5588 5584 5581
5700 5700 5699 5699 5698 5697 5696 5695 5693 5692 5690 5687 5685 5682 5679 5676 5673 5670 5667 5663 5659 5656 5652 5648 5644 5640 5636 5632 5628 5624 5620 5616 5612 5608 5604 5601 5597 5593 5589 5586 5582 5578 5574 5571
5694 5693 5693 5692 5691 5690 5688 5686 5685 5682 5680 5678 5675 5672 5669 5666 5662 5659 5655 5652 5648 5644 5640 5636 5632 5628 5624 5620 5616 5612 5609 5605 5601 5598 5594 5591 5587 5584 5580 5576 5573 5569 5566 5562
5688 5687 5686 5685 5683 5682 5680 5678 5675 5673 5670 5668 5664 5661 5658 5655 5652 5648 5644 5641 5637 5633 5629 5625 5621 5617 5613 5609 5606 5602 5599 5595 5592 5589 5585 5582 5579 5575 5572 5568 5565 5562 5558 5555
5680 5679 5678 5677 5675 5673 5671 5669 5666 5664 5661 5658 5655 5651 5648 5645 5641 5638 5634 5630 5626 5622 5618 5614 5611 5607 5603 5600 5596 5593 5590 5587 5584 5581 5578 5574 5571 5568 5565 5562 5559 5556 5553 5550
5672 5671 5670 5668 5666 5664 5662 5659 5657 5654 5651 5648 5645 5642 5638 5635 5631 5627 5624 5620 5616 5612 5609 5605 5602 5598 5595 5592 5589 5585 5582 5579 5577 5574 5571 5568 5565 5562 5560 5557 5554 5552 5549 5547